This is the latest recevied weather packets stored in our database for station/object DK1CC-11. If no packets are shown the sender has not sent any weather packets the latest 1 day(s).
| Time | Temp. | Humidity | Pressure | Rain* | Wind** | Luminosity | Snow |
|---|---|---|---|---|---|---|---|
| 1788260340 | 21.11° C | 61% | 1010.2 hPa | - | - | - | - |
| 1788259440 | 21.11° C | 63% | 1010.2 hPa | - | - | - | - |
| 1788258540 | 21.11° C | 66% | 1010.2 hPa | - | - | - | - |
| 1788257640 | 20.56° C | 65% | 1010.5 hPa | - | - | - | - |
| 1788256740 | 20.56° C | 65% | 1010.4 hPa | - | - | - | - |
| 1788255840 | 20° C | 71% | 1010.5 hPa | - | - | - | - |
| 1788254940 | 19.44° C | 73% | 1010.7 hPa | - | - | - | - |
| 1788254040 | 19.44° C | 73% | 1010.6 hPa | - | - | - | - |
| 1788253140 | 19.44° C | 74% | 1010.6 hPa | - | - | - | - |
| 1788252240 | 19.44° C | 72% | 1010.6 hPa | - | - | - | - |
| 1788251340 | 18.89° C | 76% | 1010.7 hPa | - | - | - | - |
| 1788250440 | 18.89° C | 78% | 1010.7 hPa | - | - | - | - |
| 1788249540 | 18.33° C | 80% | 1010.6 hPa | - | - | - | - |
| 1788248639 | 17.78° C | 81% | 1010.5 hPa | - | - | - | - |
| 1788247740 | 17.78° C | 84% | 1010.5 hPa | - | - | - | - |
| 1788246839 | 17.22° C | 85% | 1010.4 hPa | - | - | - | - |
| 1788245939 | 17.22° C | 86% | 1010.3 hPa | - | - | - | - |
| 1788245039 | 16.67° C | 88% | 1010.2 hPa | - | - | - | - |
| 1788244139 | 16.67° C | 88% | 1010.2 hPa | - | - | - | - |
| 1788243239 | 16.11° C | 89% | 1010.1 hPa | - | - | - | - |
| 1788242339 | 16.11° C | 92% | 1010 hPa | - | - | - | - |
| 1788241439 | 15.56° C | 92% | 1010 hPa | - | - | - | - |
| 1788240539 | 15.56° C | 92% | 1009.9 hPa | - | - | - | - |
| 1788239639 | 15.56° C | 92% | 1009.9 hPa | - | - | - | - |
| 1788238739 | 15.56° C | 92% | 1010 hPa | - | - | - | - |
* Rain since midnight (hover to see other rain measurements)
** Current wind speed in m/s (hover to see current wind gust speed)